QPF
0.06 0.03 0.01 0.01 0.01 0.02 0.05 0.09 0.08 0.08 0.09 0.10 0.09 0.08 0.05 0.05 0.07 0.07 0.05 0.06 0.08 0.08 0.08 0.05 0.04 0.04 0.04 0.03 0.04 0.03 0.04 0.05 0.06 0.06 0.05 0.06 0.04 0.04 0.05 0.06 0.08 0.12 0.18
0.05 0.02 0.01 0.01 0.01 0.02 0.03 0.07 0.09 0.10 0.10 0.12 0.11 0.09 0.07 0.06 0.05 0.07 0.07 0.06 0.07 0.08 0.07 0.05 0.05 0.04 0.04 0.04 0.05 0.04 0.03 0.04 0.04 0.04 0.07 0.07 0.05 0.05 0.04 0.04 0.06 0.09 0.09
0.04 0.02 0.02 0.02 0.01 0.02 0.04 0.06 0.08 0.08 0.08 0.11 0.10 0.09 0.10 0.09 0.08 0.07 0.06 0.06 0.04 0.04 0.05 0.05 0.04 0.03 0.02 0.03 0.03 0.04 0.03 0.03 0.04 0.06 0.12 0.14 0.08 0.05 0.04 0.03 0.05 0.05 0.06
0.04 0.02 0.01 0.02 0.01 0.02 0.03 0.05 0.07 0.09 0.08 0.07 0.09 0.10 0.10 0.09 0.08 0.06 0.05 0.03 0.02 0.04 0.04 0.04 0.03 0.02 0.03 0.03 0.02 0.03 0.04 0.05 0.05 0.07 0.12 0.15 0.10 0.05 0.04 0.04 0.06 0.05 0.07
0.01 0.01 0.01 0.02 0.02 0.03 0.03 0.03 0.04 0.05 0.06 0.06 0.08 0.08 0.07 0.07 0.07 0.07 0.06 0.04 0.02 0.04 0.03 0.04 0.03 0.02 0.03 0.04 0.03 0.02 0.02 0.04 0.04 0.06 0.09 0.11 0.09 0.06 0.05 0.05 0.06 0.07 0.08
0.01 0.00 0.01 0.01 0.02 0.04 0.04 0.03 0.03 0.03 0.02 0.02 0.04 0.04 0.03 0.03 0.03 0.04 0.05 0.05 0.03 0.03 0.03 0.04 0.04 0.03 0.02 0.02 0.03 0.03 0.04 0.05 0.04 0.08 0.10 0.10 0.09 0.07 0.05 0.05 0.05 0.05 0.07
0.01 0.01 0.00 0.01 0.02 0.03 0.04 0.04 0.04 0.04 0.03 0.03 0.02 0.03 0.03 0.04 0.05 0.06 0.04 0.04 0.03 0.03 0.04 0.04 0.05 0.03 0.01 0.02 0.03 0.04 0.06 0.05 0.05 0.09 0.08 0.07 0.09 0.08 0.04 0.04 0.04 0.05 0.08
0.01 0.00 0.00 0.01 0.02 0.03 0.03 0.03 0.04 0.03 0.03 0.03 0.03 0.03 0.03 0.04 0.06 0.06 0.04 0.03 0.03 0.04 0.04 0.04 0.04 0.03 0.02 0.02 0.03 0.03 0.03 0.02 0.03 0.05 0.04 0.06 0.08 0.07 0.05 0.05 0.04 0.07 0.09
0.01 0.02 0.01 0.01 0.02 0.03 0.03 0.03 0.03 0.03 0.03 0.04 0.04 0.04 0.03 0.04 0.05 0.05 0.04 0.04 0.04 0.04 0.04 0.04 0.04 0.03 0.02 0.02 0.02 0.02 0.02 0.02 0.04 0.04 0.04 0.05 0.06 0.06 0.07 0.06 0.05 0.06 0.07
0.00 0.01 0.02 0.01 0.01 0.02 0.03 0.02 0.03 0.03 0.04 0.04 0.05 0.05 0.05 0.05 0.05 0.04 0.04 0.04 0.04 0.03 0.03 0.03 0.03 0.02 0.01 0.02 0.02 0.02 0.02 0.02 0.04 0.04 0.06 0.05 0.06 0.06 0.06 0.05 0.05 0.05 0.06
0.01 0.01 0.01 0.01 0.01 0.01 0.02 0.02 0.02 0.02 0.03 0.04 0.04 0.04 0.05 0.08 0.09 0.07 0.04 0.04 0.03 0.03 0.03 0.02 0.02 0.01 0.01 0.02 0.02 0.01 0.02 0.03 0.03 0.05 0.07 0.08 0.07 0.06 0.05 0.06 0.06 0.06 0.06
0.01 0.01 0.01 0.01 0.01 0.01 0.01 0.02 0.02 0.02 0.03 0.04 0.03 0.03 0.05 0.06 0.08 0.05 0.04 0.04 0.04 0.04 0.03 0.02 0.02 0.03 0.03 0.03 0.02 0.02 0.03 0.03 0.03 0.04 0.05 0.08 0.06 0.06 0.06 0.06 0.07 0.06 0.06
0.01 0.00 0.00 0.00 0.01 0.00 0.01 0.02 0.02 0.03 0.04 0.05 0.04 0.03 0.05 0.05 0.06 0.05 0.04 0.05 0.05 0.04 0.04 0.03 0.05 0.06 0.05 0.04 0.03 0.03 0.03 0.02 0.04 0.05 0.06 0.08 0.07 0.06 0.06 0.09 0.08 0.05 0.05
0.00 0.00 0.00 0.00 0.00 0.01 0.01 0.01 0.01 0.03 0.04 0.04 0.04 0.04 0.04 0.05 0.06 0.05 0.06 0.06 0.05 0.06 0.05 0.05 0.07 0.06 0.04 0.04 0.03 0.03 0.02 0.03 0.04 0.06 0.08 0.06 0.06 0.08 0.08 0.10 0.10 0.07 0.06
0.00 0.00 0.00 0.00 0.00 0.01 0.01 0.02 0.01 0.03 0.04 0.05 0.05 0.05 0.04 0.04 0.03 0.03 0.04 0.04 0.03 0.03 0.04 0.06 0.06 0.04 0.03 0.03 0.04 0.02 0.03 0.04 0.05 0.06 0.07 0.06 0.09 0.11 0.11 0.11 0.09 0.07 0.06
0.01 0.00 0.00 0.00 0.00 0.01 0.01 0.02 0.02 0.02 0.04 0.05 0.04 0.02 0.02 0.02 0.02 0.03 0.03 0.02 0.02 0.02 0.03 0.04 0.03 0.02 0.02 0.02 0.04 0.03 0.03 0.04 0.05 0.06 0.06 0.04 0.06 0.08 0.11 0.12 0.10 0.07 0.07
0.01 0.00 0.00 0.00 0.01 0.02 0.02 0.02 0.01 0.01 0.03 0.04 0.03 0.02 0.02 0.02 0.02 0.04 0.04 0.04 0.02 0.01 0.02 0.02 0.03 0.02 0.01 0.01 0.02 0.02 0.04 0.06 0.05 0.05 0.05 0.05 0.05 0.07 0.10 0.12 0.13 0.10 0.10
0.02 0.01 0.00 0.00 0.01 0.03 0.02 0.03 0.03 0.02 0.03 0.04 0.04 0.02 0.02 0.03 0.03 0.04 0.04 0.03 0.02 0.02 0.02 0.02 0.04 0.03 0.02 0.01 0.02 0.03 0.04 0.05 0.05 0.05 0.05 0.06 0.06 0.05 0.07 0.08 0.09 0.11 0.12
0.01 0.01 0.00 0.01 0.01 0.02 0.02 0.03 0.02 0.03 0.03 0.03 0.03 0.03 0.03 0.03 0.03 0.04 0.05 0.04 0.03 0.02 0.02 0.02 0.03 0.04 0.04 0.03 0.03 0.04 0.03 0.03 0.05 0.07 0.06 0.05 0.05 0.05 0.05 0.04 0.05 0.07 0.07
0.00 0.01 0.00 0.01 0.01 0.01 0.03 0.03 0.03 0.03 0.02 0.03 0.03 0.03 0.03 0.04 0.04 0.04 0.05 0.04 0.03 0.02 0.02 0.03 0.03 0.03 0.05 0.04 0.02 0.02 0.02 0.02 0.04 0.05 0.05 0.05 0.05 0.04 0.04 0.04 0.03 0.03 0.05
0.01 0.01 0.00 0.01 0.01 0.01 0.03 0.05 0.06 0.05 0.04 0.02 0.02 0.03 0.03 0.03 0.03 0.04 0.04 0.05 0.05 0.04 0.03 0.03 0.05 0.05 0.04 0.04 0.04 0.04 0.03 0.02 0.02 0.02 0.03 0.02 0.03 0.02 0.03 0.06 0.05 0.04 0.04
0.00 0.00 0.00 0.01 0.01 0.01 0.02 0.04 0.06 0.06 0.04 0.02 0.03 0.04 0.04 0.03 0.02 0.03 0.05 0.05 0.05 0.05 0.04 0.04 0.07 0.07 0.05 0.04 0.04 0.05 0.05 0.05 0.03 0.02 0.02 0.01 0.02 0.02 0.02 0.03 0.04 0.04 0.04
0.00 0.00 0.01 0.01 0.01 0.01 0.02 0.02 0.04 0.04 0.04 0.03 0.03 0.05 0.05 0.05 0.05 0.04 0.05 0.04 0.03 0.04 0.05 0.05 0.06 0.07 0.06 0.05 0.04 0.07 0.07 0.06 0.05 0.04 0.02 0.01 0.02 0.02 0.02 0.02 0.02 0.04 0.05
0.00 0.00 0.01 0.01 0.01 0.02 0.03 0.03 0.04 0.04 0.03 0.02 0.02 0.03 0.04 0.04 0.04 0.03 0.03 0.03 0.03 0.03 0.04 0.05 0.05 0.07 0.08 0.07 0.06 0.05 0.06 0.05 0.07 0.06 0.04 0.03 0.03 0.03 0.02 0.02 0.03 0.04 0.03
0.00 0.00 0.01 0.01 0.02 0.02 0.02 0.03 0.03 0.02 0.02 0.02 0.04 0.04 0.05 0.04 0.04 0.03 0.03 0.02 0.03 0.03 0.04 0.06 0.06 0.07 0.07 0.06 0.06 0.06 0.07 0.06 0.06 0.06 0.06 0.07 0.06 0.04 0.04 0.03 0.03 0.03 0.02
0.00 0.00 0.01 0.01 0.02 0.01 0.02 0.01 0.01 0.02 0.03 0.04 0.04 0.07 0.07 0.04 0.04 0.04 0.02 0.02 0.02 0.03 0.04 0.06 0.05 0.04 0.04 0.04 0.06 0.06 0.06 0.05 0.04 0.05 0.05 0.06 0.07 0.06 0.05 0.04 0.03 0.02 0.02
MSLP
1010.84 1010.69 1010.61 1010.62 1010.71 1010.85 1010.99 1011.07 1011.07 1010.96 1010.77 1010.54 1010.32 1010.15 1010.07 1010.06 1010.12 1010.21 1010.30 1010.37 1010.40 1010.42 1010.45 1010.52 1010.64 1010.81 1011.03 1011.25 1011.46 1011.61 1011.71 1011.75 1011.76 1011.77 1011.80 1011.87 1011.99 1012.14 1012.30 1012.47 1012.62 1012.76 1012.89
1010.61 1010.50 1010.48 1010.58 1010.76 1010.98 1011.18 1011.30 1011.29 1011.16 1010.94 1010.66 1010.40 1010.22 1010.13 1010.14 1010.22 1010.34 1010.44 1010.51 1010.53 1010.53 1010.53 1010.58 1010.69 1010.88 1011.12 1011.39 1011.64 1011.84 1011.97 1012.02 1012.03 1012.02 1012.02 1012.05 1012.13 1012.25 1012.40 1012.56 1012.72 1012.88 1013.03
1010.28 1010.22 1010.27 1010.45 1010.72 1011.03 1011.29 1011.45 1011.46 1011.33 1011.08 1010.78 1010.50 1010.30 1010.20 1010.21 1010.29 1010.41 1010.50 1010.55 1010.54 1010.51 1010.49 1010.52 1010.64 1010.84 1011.12 1011.44 1011.74 1012.00 1012.17 1012.26 1012.28 1012.26 1012.24 1012.24 1012.29 1012.39 1012.52 1012.68 1012.85 1013.02 1013.19
1009.86 1009.84 1009.96 1010.22 1010.58 1010.97 1011.30 1011.51 1011.56 1011.44 1011.19 1010.88 1010.59 1010.37 1010.26 1010.25 1010.31 1010.40 1010.47 1010.48 1010.44 1010.38 1010.34 1010.36 1010.47 1010.70 1011.03 1011.40 1011.77 1012.09 1012.32 1012.45 1012.50 1012.48 1012.45 1012.44 1012.46 1012.54 1012.67 1012.83 1013.01 1013.21 1013.40
1009.37 1009.40 1009.58 1009.92 1010.35 1010.81 1011.21 1011.48 1011.56 1011.47 1011.24 1010.93 1010.64 1010.41 1010.28 1010.25 1010.28 1010.34 1010.36 1010.33 1010.26 1010.17 1010.10 1010.12 1010.25 1010.51 1010.88 1011.31 1011.75 1012.13 1012.42 1012.60 1012.68 1012.68 1012.64 1012.62 1012.63 1012.70 1012.83 1013.00 1013.20 1013.42 1013.64
1008.87 1008.94 1009.17 1009.56 1010.06 1010.58 1011.04 1011.35 1011.47 1011.42 1011.21 1010.93 1010.64 1010.41 1010.27 1010.21 1010.21 1010.23 1010.21 1010.15 1010.04 1009.92 1009.85 1009.87 1010.02 1010.31 1010.72 1011.21 1011.70 1012.14 1012.48 1012.70 1012.81 1012.82 1012.79 1012.76 1012.76 1012.83 1012.96 1013.15 1013.38 1013.62 1013.88
1008.42 1008.52 1008.79 1009.22 1009.76 1010.31 1010.80 1011.14 1011.30 1011.28 1011.11 1010.86 1010.59 1010.37 1010.23 1010.16 1010.13 1010.11 1010.06 1009.97 1009.84 1009.72 1009.64 1009.67 1009.83 1010.15 1010.59 1011.11 1011.64 1012.12 1012.50 1012.75 1012.87 1012.89 1012.86 1012.83 1012.83 1012.90 1013.04 1013.25 1013.51 1013.80 1014.08
1008.07 1008.18 1008.48 1008.92 1009.47 1010.03 1010.53 1010.88 1011.06 1011.07 1010.94 1010.72 1010.50 1010.30 1010.17 1010.10 1010.06 1010.03 1009.96 1009.85 1009.72 1009.59 1009.52 1009.56 1009.73 1010.06 1010.52 1011.05 1011.60 1012.09 1012.48 1012.73 1012.85 1012.87 1012.84 1012.80 1012.80 1012.88 1013.03 1013.27 1013.57 1013.90 1014.24
1007.85 1007.98 1008.27 1008.71 1009.24 1009.78 1010.25 1010.59 1010.78 1010.81 1010.71 1010.54 1010.36 1010.21 1010.11 1010.05 1010.03 1010.00 1009.93 1009.82 1009.69 1009.57 1009.51 1009.56 1009.74 1010.07 1010.52 1011.04 1011.57 1012.05 1012.42 1012.66 1012.77 1012.78 1012.73 1012.68 1012.68 1012.76 1012.94 1013.21 1013.55 1013.93 1014.32
1007.75 1007.88 1008.17 1008.58 1009.07 1009.56 1009.98 1010.30 1010.47 1010.52 1010.45 1010.33 1010.21 1010.11 1010.06 1010.04 1010.04 1010.03 1009.98 1009.90 1009.78 1009.68 1009.63 1009.68 1009.85 1010.16 1010.59 1011.08 1011.58 1012.02 1012.36 1012.57 1012.66 1012.64 1012.58 1012.52 1012.52 1012.60 1012.80 1013.10 1013.48 1013.92 1014.37
1007.73 1007.88 1008.15 1008.52 1008.95 1009.38 1009.75 1010.02 1010.17 1010.22 1010.19 1010.12 1010.06 1010.02 1010.02 1010.06 1010.11 1010.13 1010.12 1010.06 1009.97 1009.89 1009.85 1009.90 1010.06 1010.35 1010.73 1011.18 1011.63 1012.03 1012.33 1012.51 1012.57 1012.54 1012.46 1012.39 1012.38 1012.47 1012.68 1013.00 1013.43 1013.91 1014.42
1007.75 1007.91 1008.17 1008.51 1008.88 1009.24 1009.55 1009.77 1009.91 1009.96 1009.95 1009.93 1009.92 1009.95 1010.02 1010.11 1010.21 1010.29 1010.32 1010.30 1010.25 1010.19 1010.17 1010.22 1010.36 1010.62 1010.96 1011.36 1011.77 1012.12 1012.39 1012.55 1012.59 1012.55 1012.46 1012.39 1012.37 1012.46 1012.68 1013.01 1013.46 1013.98 1014.53
1007.75 1007.93 1008.20 1008.51 1008.84 1009.14 1009.40 1009.58 1009.69 1009.75 1009.76 1009.78 1009.83 1009.91 1010.03 1010.19 1010.35 1010.48 1010.57 1010.60 1010.60 1010.58 1010.58 1010.63 1010.76 1010.99 1011.29 1011.65 1012.02 1012.35 1012.60 1012.74 1012.79 1012.75 1012.66 1012.59 1012.57 1012.66 1012.87 1013.20 1013.66 1014.19 1014.77
1007.70 1007.92 1008.20 1008.51 1008.81 1009.08 1009.30 1009.46 1009.56 1009.61 1009.65 1009.70 1009.78 1009.90 1010.08 1010.28 1010.50 1010.70 1010.85 1010.95 1011.01 1011.04 1011.07 1011.13 1011.26 1011.46 1011.74 1012.07 1012.42 1012.73 1012.98 1013.14 1013.20 1013.17 1013.11 1013.04 1013.02 1013.10 1013.30 1013.62 1014.06 1014.58 1015.15
1007.58 1007.86 1008.16 1008.48 1008.79 1009.05 1009.27 1009.42 1009.52 1009.58 1009.63 1009.69 1009.79 1009.94 1010.15 1010.40 1010.67 1010.93 1011.16 1011.34 1011.47 1011.56 1011.63 1011.72 1011.86 1012.06 1012.32 1012.63 1012.97 1013.28 1013.55 1013.73 1013.83 1013.84 1013.80 1013.75 1013.73 1013.80 1013.97 1014.26 1014.66 1015.15 1015.69
1007.41 1007.74 1008.09 1008.44 1008.77 1009.06 1009.29 1009.46 1009.58 1009.65 1009.70 1009.77 1009.87 1010.03 1010.25 1010.52 1010.84 1011.17 1011.48 1011.74 1011.96 1012.13 1012.27 1012.40 1012.56 1012.76 1013.01 1013.32 1013.65 1013.98 1014.27 1014.49 1014.63 1014.69 1014.68 1014.66 1014.64 1014.69 1014.83 1015.08 1015.43 1015.86 1016.35
1007.21 1007.59 1007.99 1008.39 1008.76 1009.10 1009.37 1009.58 1009.72 1009.81 1009.87 1009.93 1010.02 1010.16 1010.38 1010.67 1011.02 1011.41 1011.80 1012.16 1012.48 1012.74 1012.95 1013.13 1013.31 1013.52 1013.77 1014.07 1014.40 1014.75 1015.07 1015.34 1015.52 1015.63 1015.67 1015.66 1015.66 1015.69 1015.80 1016.00 1016.29 1016.66 1017.08
1007.01 1007.44 1007.89 1008.34 1008.76 1009.15 1009.49 1009.75 1009.93 1010.05 1010.11 1010.16 1010.22 1010.33 1010.53 1010.83 1011.20 1011.65 1012.12 1012.58 1012.99 1013.34 1013.63 1013.86 1014.07 1014.28 1014.53 1014.83 1015.16 1015.52 1015.86 1016.17 1016.40 1016.56 1016.64 1016.66 1016.67 1016.69 1016.77 1016.93 1017.16 1017.47 1017.82
1006.86 1007.32 1007.80 1008.28 1008.76 1009.22 1009.62 1009.94 1010.18 1010.32 1010.40 1010.43 1010.46 1010.55 1010.72 1011.00 1011.40 1011.88 1012.43 1012.97 1013.47 1013.91 1014.26 1014.54 1014.77 1014.99 1015.23 1015.51 1015.83 1016.19 1016.56 1016.90 1017.18 1017.38 1017.50 1017.56 1017.59 1017.62 1017.68 1017.80 1018.00 1018.25 1018.54
1006.76 1007.24 1007.73 1008.24 1008.76 1009.27 1009.74 1010.13 1010.42 1010.61 1010.70 1010.72 1010.74 1010.79 1010.94 1011.20 1011.61 1012.12 1012.71 1013.32 1013.89 1014.40 1014.80 1015.11 1015.36 1015.57 1015.79 1016.05 1016.36 1016.72 1017.10 1017.47 1017.80 1018.05 1018.22 1018.32 1018.38 1018.43 1018.49 1018.60 1018.76 1018.98 1019.23
1006.76 1007.22 1007.70 1008.22 1008.76 1009.30 1009.82 1010.28 1010.63 1010.87 1010.99 1011.03 1011.03 1011.06 1011.19 1011.44 1011.83 1012.35 1012.97 1013.62 1014.23 1014.77 1015.21 1015.53 1015.78 1015.98 1016.18 1016.42 1016.72 1017.07 1017.47 1017.87 1018.24 1018.54 1018.77 1018.93 1019.03 1019.11 1019.20 1019.31 1019.47 1019.67 1019.89
1006.84 1007.27 1007.72 1008.21 1008.75 1009.31 1009.87 1010.37 1010.79 1011.08 1011.25 1011.31 1011.33 1011.36 1011.46 1011.69 1012.07 1012.59 1013.20 1013.86 1014.48 1015.03 1015.47 1015.79 1016.01 1016.19 1016.37 1016.59 1016.88 1017.25 1017.67 1018.10 1018.53 1018.90 1019.19 1019.42 1019.58 1019.71 1019.83 1019.97 1020.14 1020.34 1020.55
1007.03 1007.41 1007.80 1008.24 1008.74 1009.29 1009.87 1010.41 1010.88 1011.24 1011.46 1011.57 1011.62 1011.66 1011.76 1011.98 1012.34 1012.83 1013.42 1014.04 1014.65 1015.17 1015.58 1015.88 1016.08 1016.24 1016.39 1016.60 1016.90 1017.28 1017.73 1018.21 1018.70 1019.14 1019.52 1019.82 1020.06 1020.26 1020.43 1020.62 1020.81 1021.02 1021.24
1007.31 1007.63 1007.94 1008.31 1008.75 1009.27 1009.84 1010.41 1010.93 1011.34 1011.63 1011.80 1011.89 1011.96 1012.07 1012.28 1012.61 1013.06 1013.61 1014.18 1014.74 1015.21 1015.58 1015.84 1016.01 1016.14 1016.29 1016.50 1016.80 1017.20 1017.70 1018.24 1018.80 1019.33 1019.79 1020.18 1020.51 1020.78 1021.03 1021.26 1021.49 1021.73 1021.95
1007.65 1007.91 1008.14 1008.43 1008.80 1009.27 1009.81 1010.39 1010.93 1011.40 1011.74 1011.98 1012.12 1012.24 1012.37 1012.57 1012.88 1013.29 1013.77 1014.29 1014.78 1015.19 1015.51 1015.72 1015.86 1015.97 1016.11 1016.32 1016.64 1017.08 1017.62 1018.22 1018.85 1019.46 1020.02 1020.51 1020.92 1021.28 1021.60 1021.89 1022.17 1022.44 1022.68
1008.04 1008.23 1008.39 1008.59 1008.88 1009.29 1009.79 1010.35 1010.91 1011.41 1011.81 1012.10 1012.30 1012.46 1012.62 1012.82 1013.11 1013.48 1013.91 1014.35 1014.77 1015.13 1015.39 1015.57 1015.68 1015.78 1015.91 1016.14 1016.47 1016.94 1017.52 1018.17 1018.87 1019.55 1020.20 1020.77 1021.28 1021.73 1022.12 1022.48 1022.81 1023.12 1023.38
Thickness
5772 5771 5769 5768 5768 5767 5767 5766 5766 5766 5765 5764 5764 5763 5763 5762 5762 5762 5762 5762 5762 5763 5763 5763 5763 5763 5764 5764 5763 5764 5764 5764 5764 5764 5763 5763 5763 5763 5763 5763 5763 5763 5763
5774 5771 5767 5766 5766 5765 5764 5764 5763 5763 5762 5762 5761 5760 5760 5759 5759 5759 5759 5759 5759 5759 5760 5760 5760 5760 5760 5761 5760 5761 5761 5761 5761 5761 5761 5760 5760 5761 5761 5761 5761 5761 5761
5774 5769 5766 5764 5763 5762 5762 5761 5760 5759 5759 5758 5758 5757 5757 5756 5756 5756 5756 5756 5756 5756 5756 5757 5757 5757 5757 5757 5758 5758 5758 5758 5758 5759 5759 5758 5758 5758 5758 5758 5759 5758 5758
5774 5768 5764 5761 5760 5759 5758 5758 5757 5756 5756 5755 5755 5754 5754 5753 5753 5753 5753 5753 5753 5753 5753 5753 5754 5754 5754 5754 5754 5755 5755 5755 5756 5756 5756 5756 5756 5756 5756 5756 5756 5756 5756
5772 5766 5761 5759 5758 5757 5756 5755 5754 5753 5752 5752 5751 5751 5750 5750 5750 5750 5750 5750 5750 5750 5750 5750 5751 5751 5751 5751 5752 5752 5752 5753 5753 5753 5753 5753 5753 5753 5753 5753 5753 5753 5753
5769 5765 5759 5757 5755 5754 5753 5752 5751 5750 5749 5749 5749 5748 5747 5747 5747 5747 5747 5747 5747 5747 5747 5747 5747 5747 5748 5748 5749 5749 5749 5750 5750 5750 5750 5750 5749 5749 5750 5750 5750 5750 5750
5767 5763 5758 5755 5753 5752 5750 5749 5748 5747 5746 5746 5746 5745 5745 5744 5744 5744 5743 5743 5744 5743 5743 5743 5744 5744 5744 5745 5745 5746 5747 5747 5747 5747 5746 5746 5746 5746 5746 5746 5746 5746 5746
5765 5762 5757 5754 5752 5750 5749 5747 5746 5745 5744 5743 5743 5742 5741 5741 5740 5740 5740 5740 5740 5740 5740 5740 5740 5740 5741 5741 5742 5743 5744 5744 5744 5744 5742 5742 5742 5743 5743 5743 5742 5742 5742
5765 5761 5757 5754 5751 5749 5747 5745 5744 5743 5742 5741 5740 5739 5738 5738 5737 5737 5737 5737 5737 5736 5736 5736 5736 5737 5737 5738 5739 5739 5740 5740 5740 5740 5739 5738 5738 5739 5739 5739 5738 5738 5739
5763 5760 5757 5754 5751 5749 5746 5744 5742 5741 5740 5738 5738 5737 5736 5736 5734 5734 5734 5733 5733 5733 5733 5733 5733 5733 5734 5735 5735 5736 5736 5736 5735 5734 5734 5734 5734 5735 5735 5735 5734 5734 5735
5758 5757 5756 5754 5751 5749 5746 5743 5741 5739 5738 5737 5735 5735 5734 5734 5732 5731 5731 5730 5730 5730 5729 5729 5729 5730 5731 5731 5732 5733 5733 5732 5731 5730 5729 5729 5730 5730 5730 5730 5730 5730 5730
5752 5753 5754 5752 5750 5747 5745 5742 5740 5738 5737 5735 5734 5733 5732 5732 5730 5729 5727 5727 5727 5726 5726 5726 5726 5727 5727 5728 5729 5729 5729 5728 5727 5726 5724 5725 5725 5726 5726 5726 5726 5725 5725
5752 5751 5751 5750 5749 5746 5743 5740 5738 5737 5735 5734 5733 5732 5730 5729 5728 5726 5725 5724 5724 5724 5724 5724 5724 5724 5725 5726 5726 5725 5725 5724 5722 5720 5719 5720 5721 5721 5721 5721 5721 5721 5721
5750 5749 5749 5749 5746 5744 5741 5738 5736 5734 5733 5732 5731 5730 5728 5727 5726 5724 5723 5722 5722 5722 5722 5722 5722 5722 5723 5723 5723 5722 5720 5718 5716 5715 5714 5715 5716 5717 5717 5717 5716 5716 5716
5747 5746 5746 5746 5743 5741 5739 5736 5734 5732 5730 5729 5728 5727 5726 5725 5724 5722 5721 5720 5719 5719 5719 5719 5718 5719 5718 5718 5718 5716 5715 5714 5712 5710 5710 5710 5711 5712 5712 5712 5712 5711 5711
5746 5745 5744 5743 5741 5738 5736 5734 5731 5729 5728 5726 5725 5724 5724 5723 5722 5720 5718 5717 5717 5716 5716 5715 5715 5714 5713 5712 5712 5711 5710 5709 5708 5707 5706 5705 5705 5706 5707 5707 5707 5706 5706
5746 5744 5741 5740 5738 5735 5732 5730 5728 5726 5725 5723 5722 5722 5721 5721 5719 5717 5715 5714 5713 5713 5712 5711 5710 5710 5709 5708 5707 5706 5705 5705 5704 5703 5703 5702 5701 5700 5701 5701 5701 5702 5702
5745 5742 5739 5738 5735 5732 5729 5727 5725 5723 5721 5720 5719 5719 5718 5718 5716 5714 5712 5711 5710 5710 5708 5707 5705 5704 5703 5703 5702 5701 5701 5701 5701 5700 5700 5699 5697 5696 5696 5696 5696 5696 5696
5743 5740 5736 5734 5731 5728 5726 5723 5721 5719 5718 5716 5715 5715 5714 5714 5713 5711 5710 5708 5707 5706 5705 5704 5701 5700 5698 5698 5697 5697 5697 5697 5696 5697 5696 5696 5694 5693 5691 5691 5691 5691 5691
5741 5738 5734 5730 5728 5725 5722 5719 5717 5715 5713 5712 5711 5711 5710 5710 5709 5708 5707 5705 5704 5702 5700 5699 5697 5697 5696 5695 5695 5693 5693 5693 5693 5693 5693 5692 5691 5690 5689 5687 5686 5686 5686
5736 5733 5730 5726 5724 5721 5717 5713 5710 5708 5708 5707 5707 5706 5706 5706 5705 5704 5703 5702 5700 5698 5697 5696 5694 5692 5691 5692 5689 5686 5687 5689 5689 5689 5689 5689 5688 5687 5686 5685 5684 5683 5682
5730 5729 5727 5724 5721 5718 5714 5712 5709 5706 5705 5704 5704 5703 5702 5702 5701 5700 5699 5697 5696 5694 5693 5692 5691 5688 5688 5689 5685 5680 5676 5677 5681 5685 5685 5685 5685 5684 5683 5682 5681 5680 5678
5726 5725 5724 5721 5718 5715 5713 5710 5708 5704 5702 5700 5699 5698 5699 5698 5698 5697 5695 5694 5693 5691 5689 5689 5688 5686 5684 5685 5686 5681 5673 5668 5672 5676 5680 5681 5681 5680 5679 5679 5678 5676 5674
5723 5723 5721 5718 5715 5713 5711 5707 5702 5698 5694 5695 5695 5695 5696 5695 5694 5693 5692 5691 5690 5689 5687 5687 5686 5685 5683 5681 5682 5683 5682 5678 5670 5667 5671 5675 5677 5676 5676 5676 5674 5673 5671
5720 5719 5717 5715 5712 5710 5707 5704 5700 5696 5694 5694 5693 5692 5691 5691 5690 5690 5689 5688 5687 5686 5685 5685 5684 5683 5682 5680 5679 5679 5678 5677 5676 5668 5663 5666 5669 5671 5671 5671 5670 5669 5667
5715 5714 5712 5709 5707 5705 5703 5701 5698 5694 5692 5690 5688 5687 5686 5686 5686 5686 5686 5685 5684 5684 5683 5682 5682 5681 5680 5679 5678 5677 5675 5673 5671 5669 5664 5662 5662 5664 5667 5667 5667 5665 5663